Tracking 26544 objects as of 9-Dec-2022
HD Live streaming from Space Station
objects crossing your sky now

ZHUHAI-1 03C

Track ZHUHAI-1 03C now!
10-day predictions


NORAD ID: 44537
Int'l Code: 2019-060D
Perigee: 490.6 km
Apogee: 504.0 km
Inclination: 97.5 °
Period: 94.4 minutes
Semi major axis: 6868 km
RCS: Unknown
Launch date: September 19, 2019
Source: People's Republic of China (PRC)
Launch site: Jiuquan Satellite Launch Center, China (JSC)
aabbcc
Your satellite tracking list
Your tracking list is empty




NASA's NSSDC Master Catalog

Two Line Element Set (TLE):
1 44537U 19060D   22343.26420139  .00012110  00000-0  48435-3 0  9992
2 44537  97.4639  91.4043 0009760 172.1844 218.7693 15.25199165178740
Source of the keplerian elements: AFSPC